Location: *
(45.1961°N, 1.9694°E)
Time: 09:52:26
(UTC+00:00)

ARGOS - Pass Details

Date: 25 August 2019
Orbit: 820 x 835 km, 98.5° (Epoch: 14 September)

Event Time Altitude Azimuth Distance (km) Brightness Sun altitude
Exits shadow 19:55:18 - 166° (SSE) 2,804 5.5 -12.6°
Reaches altitude 10° 19:56:18 10° 166° (SSE) 2,412 5.2 -12.7°
Maximum altitude 20:01:39 86° 254° (WSW) 829 3.2 -13.6°
Drops below altitude 10° 20:07:02 10° 345° (NNW) 2,427 6.3 -14.4°
Sets 20:09:24 0° 346° (NNW) 3,364 7.1 -14.7°
